(37072) = 1998 DA36 = 1998 FF147 = 2000 UF52

Discovered at Socorro on 2000-10-24 by LINEAR.

Orbit

Orbit type: Main Belt

Note: WebGL enabled browser required.

epoch2023-09-13.0
epoch JD2460200.5
perihelion date2019-08-28.16873
perihelion JD2458723.66873
argument of perihelion (°)204.24691
ascending node (°)51.91341
inclination (°)2.69488
eccentricity0.0808066
perihelion distance (AU)2.3599412
Tisserand w.r.t. Jupiter3.4
ΔV w.r.t. Earth (km/sec)9.6
semimajor axis (AU)2.5674043
mean anomaly (°)353.82891
mean daily motion (°/day)0.23958660
aphelion distance (AU)2.775
period (years)4.11
P-vector [x]-0.23956354
P-vector [y]-0.88290896
P-vector [z]-0.40383299
Q-vector [x]0.97017517
Q-vector [y]-0.20184410
Q-vector [z]-0.13423527
absolute magnitude14.51
phase slope0.15
uncertainty0
referenceMPEC 2024-A55
observations used2280
oppositions19
arc length (days)9293
first opposition used1998
last opposition used2023
residual rms (arc-secs)0.61
perturbers coarse indicatorM-v
perturbers precise indicator003Ek
first observation date used1998-02-25.0
last observation date used2023-08-06.0
computer nameMPCLINUX
JD of orbit computation2456819.426820
perihelion JD uncertainty (days)1.4624E-04
argument of perihelion uncertainty (°)8.4528E-05
ascending node uncertainty (°)7.8244E-05
inclination uncertainty (°)3.3009E-06
eccentricity uncertainty 3.0795E-08
perihelion distance uncertainty (AU)7.7298E-08
Minimum Orbit Intersection Distances (in AU)
for orbit epoch: 2460200.5, reference: E2024-A55
Mercury1.89369
Venus1.634
Earth1.34461
Mars0.81531
Jupiter2.24314
Saturn6.28565
Uranus15.8594
Neptune27.1135

Observations

2286 total observations over interval: 1998 02 25.34236 – 2023 08 06.034833
These data are available for download (format description).

Date (UT) J2000 RA J2000 Dec Magn Location Ref
1998 02 25.34236 11 29 44.45 +07 40 07.3   809 – European Southern Observatory, La Silla MPS 926
1998 02 25.35556 11 29 43.88 +07 40 11.4   809 – European Southern Observatory, La Silla MPS 926
1998 02 25.36875 11 29 43.10 +07 40 16.0   809 – European Southern Observatory, La Silla MPS 926
1998 02 26.16736 11 29 04.45 +07 44 31.9 18.5   809 – European Southern Observatory, La Silla MPS 926
1998 02 26.18056 11 29 03.85 +07 44 34.5   809 – European Southern Observatory, La Silla MPS 926
1998 02 26.19375 11 29 03.21 +07 44 40.3   809 – European Southern Observatory, La Silla MPS 926
1998 03 20.12711 11 09 36.99 +09 37 11.0 17.6   704 – Lincoln Laboratory ETS, New Mexico MPS 22125
1998 03 20.14738 11 09 35.94 +09 37 15.9 18.0   704 – Lincoln Laboratory ETS, New Mexico MPS 22125
1998 03 20.16759 11 09 34.87 +09 37 20.9 17.7   704 – Lincoln Laboratory ETS, New Mexico MPS 22125
1998 03 20.18769 11 09 33.76 +09 37 27.2 17.5   704 – Lincoln Laboratory ETS, New Mexico MPS 22125
1998 03 20.20827 11 09 32.70 +09 37 32.0 17.5   704 – Lincoln Laboratory ETS, New Mexico MPS 22125
1998 03 25.42958 11 05 13.37 +09 58 29.1 18.7 V 566 – Haleakala-NEAT/GEODSS MPS 17461
1998 03 25.43967 11 05 12.86 +09 58 31.4 18.7 V 566 – Haleakala-NEAT/GEODSS MPS 17461
1998 03 25.44993 11 05 12.37 +09 58 33.5 18.9 V 566 – Haleakala-NEAT/GEODSS MPS 17461
1998 03 29.18122 11 02 22.94 +10 11 10.3 18.9   704 – Lincoln Laboratory ETS, New Mexico MPS 22125
1998 03 29.20133 11 02 22.03 +10 11 14.0 19.0   704 – Lincoln Laboratory ETS, New Mexico MPS 22125
1998 03 29.22151 11 02 21.10 +10 11 18.0 18.6   704 – Lincoln Laboratory ETS, New Mexico MPS 22125
1998 03 29.24157 11 02 20.25 +10 11 21.2 18.6   704 – Lincoln Laboratory ETS, New Mexico MPS 22125
1998 03 29.26209 11 02 19.19 +10 11 25.4 18.5   704 – Lincoln Laboratory ETS, New Mexico MPS 22125
1999 07 14.32707 20 50 20.58 -22 09 58.7 18.1   704 – Lincoln Laboratory ETS, New Mexico MPS 22658
1999 07 14.33977 20 50 19.89 -22 10 00.8 18.2   704 – Lincoln Laboratory ETS, New Mexico MPS 22658
1999 07 14.35233 20 50 19.31 -22 10 04.4 17.4   704 – Lincoln Laboratory ETS, New Mexico MPS 22658
2000 10 24.41307 03 58 36.77 +20 26 41.4 19.2   704 – Lincoln Laboratory ETS, New Mexico MPS 21606
2000 10 24.42649 03 58 36.21 +20 26 40.1 19.3   704 – Lincoln Laboratory ETS, New Mexico MPS 21606
2000 10 24.43993 03 58 35.60 +20 26 39.4 18.9   704 – Lincoln Laboratory ETS, New Mexico MPS 21606
2000 10 24.45337 03 58 35.03 +20 26 38.3 18.9   704 – Lincoln Laboratory ETS, New Mexico MPS 21606
2000 11 01.30166 03 52 24.63 +20 15 26.7 18.2   704 – Lincoln Laboratory ETS, New Mexico MPS 21606
2000 11 01.31596 03 52 23.90 +20 15 25.7 18.7   704 – Lincoln Laboratory ETS, New Mexico MPS 21606
2000 11 01.33026 03 52 23.14 +20 15 23.9 18.4   704 – Lincoln Laboratory ETS, New Mexico MPS 21606
2000 11 01.34486 03 52 22.33 +20 15 21.6 18.7   704 – Lincoln Laboratory ETS, New Mexico MPS 21606
2000 11 01.35909 03 52 21.59 +20 15 21.6 18.7   704 – Lincoln Laboratory ETS, New Mexico MPS 21606
2000 11 02.28331 03 51 33.28 +20 13 45.3 18.1   704 – Lincoln Laboratory ETS, New Mexico MPS 22658
2000 11 02.29693 03 51 32.54 +20 13 45.0 18.6   704 – Lincoln Laboratory ETS, New Mexico MPS 22658
2000 11 02.31049 03 51 31.88 +20 13 43.3 18.8   704 – Lincoln Laboratory ETS, New Mexico MPS 22658
2000 11 02.32404 03 51 31.09 +20 13 41.5 18.7   704 – Lincoln Laboratory ETS, New Mexico MPS 22658
2000 11 02.33762 03 51 30.29 +20 13 40.4 17.9   704 – Lincoln Laboratory ETS, New Mexico MPS 22658
2000 11 20.97734 03 33 20.64 +19 32 00.8   127 – Bornheim MPS 22658
2000 11 20.98763 03 33 19.99 +19 31 59.3   127 – Bornheim MPS 22658
2000 11 21.29147 03 33 01.66 +19 31 14.1 18.1   704 – Lincoln Laboratory ETS, New Mexico MPS 22658
2000 11 21.30609 03 33 00.75 +19 31 10.9 18.3   704 – Lincoln Laboratory ETS, New Mexico MPS 22658
2000 11 21.32070 03 32 59.86 +19 31 09.8 18.0   704 – Lincoln Laboratory ETS, New Mexico MPS 22658
2000 11 21.33532 03 32 58.91 +19 31 07.3 17.6   704 – Lincoln Laboratory ETS, New Mexico MPS 22658
2000 11 21.34992 03 32 58.01 +19 31 05.2 17.5   704 – Lincoln Laboratory ETS, New Mexico MPS 22658
2001 01 20.08742 03 07 53.47 +18 35 11.2 19.4   704 – Lincoln Laboratory ETS, New Mexico MPS 25230
2001 01 20.10239 03 07 53.73 +18 35 12.7 20.0   704 – Lincoln Laboratory ETS, New Mexico MPS 25230
2001 01 20.11740 03 07 53.95 +18 35 13.4 19.6   704 – Lincoln Laboratory ETS, New Mexico MPS 25230
2001 01 20.13235 03 07 54.32 +18 35 14.5 19.5   704 – Lincoln Laboratory ETS, New Mexico MPS 25230
2001 01 20.14730 03 07 54.58 +18 35 16.5 19.4   704 – Lincoln Laboratory ETS, New Mexico MPS 25230
2002 01 12.33986 10 56 30.04 +10 51 09.4 18.8 V 333 – Desert Eagle Observatory MPS 46580
2002 01 12.36243 10 56 29.87 +10 51 11.4 18.8 V 333 – Desert Eagle Observatory MPS 46580
2002 01 12.38550 10 56 29.59 +10 51 15.6 18.8 V 333 – Desert Eagle Observatory MPS 46580
2002 01 14.46496 10 56 13.85 +10 55 36.1 18.7   704 – Lincoln Laboratory ETS, New Mexico MPS 49237
2002 01 14.48038 10 56 13.62 +10 55 39.1 19.7   704 – Lincoln Laboratory ETS, New Mexico MPS 49237
2002 01 14.49625 10 56 13.43 +10 55 41.2 19.9   704 – Lincoln Laboratory ETS, New Mexico MPS 49237
2002 01 14.51157 10 56 13.32 +10 55 43.2 19.9   704 – Lincoln Laboratory ETS, New Mexico MPS 49237
2002 01 14.52690 10 56 13.06 +10 55 45.2 19.2   704 – Lincoln Laboratory ETS, New Mexico MPS 49237
2002 01 18.46798 10 55 23.62 +11 05 49.3 18.5   704 – Lincoln Laboratory ETS, New Mexico MPS 49237
2002 01 18.48326 10 55 23.34 +11 05 52.2 19.1   704 – Lincoln Laboratory ETS, New Mexico MPS 49237
2002 01 18.49853 10 55 23.09 +11 05 55.3 18.9   704 – Lincoln Laboratory ETS, New Mexico MPS 49237
2002 01 18.51381 10 55 22.82 +11 05 57.7 19.1   704 – Lincoln Laboratory ETS, New Mexico MPS 49237
2002 01 18.52909 10 55 22.53 +11 06 00.0 18.8   704 – Lincoln Laboratory ETS, New Mexico MPS 49237
2002 01 21.31017 10 54 32.55 +11 14 32.1 18.2   704 – Lincoln Laboratory ETS, New Mexico MPS 49237
2002 01 21.32509 10 54 32.18 +11 14 35.0 18.5   704 – Lincoln Laboratory ETS, New Mexico MPS 49237
2002 01 21.34002 10 54 31.86 +11 14 37.7 18.8   704 – Lincoln Laboratory ETS, New Mexico MPS 49237
2002 01 21.35500 10 54 31.50 +11 14 41.2 19.2   704 – Lincoln Laboratory ETS, New Mexico MPS 49237
2002 01 21.37030 10 54 31.16 +11 14 44.1 18.8   704 – Lincoln Laboratory ETS, New Mexico MPS 49237
2002 01 22.46963 10 54 07.59 +11 18 24.2 18.3   644 – Palomar Mountain/NEAT MPS 49237
2002 01 22.48003 10 54 07.31 +11 18 26.4 19.1   644 – Palomar Mountain/NEAT MPS 49237
2002 01 22.49050 10 54 07.06 +11 18 28.7 18.3   644 – Palomar Mountain/NEAT MPS 49237
2002 02 04.37751 10 47 15.25 +12 12 48.2 18.2 R 699 – Lowell Observatory-LONEOS MPS 49237
2002 02 04.40563 10 47 13.97 +12 12 56.5   699 – Lowell Observatory-LONEOS MPS 49237
2002 02 04.43381 10 47 12.85 +12 13 05.2   699 – Lowell Observatory-LONEOS MPS 49237
2002 02 04.46207 10 47 11.56 +12 13 13.4   699 – Lowell Observatory-LONEOS MPS 49237
2002 02 04.55069 10 47 07.79 +12 13 38.6 18.6   644 – Palomar Mountain/NEAT MPS 49237
2002 02 04.56103 10 47 07.33 +12 13 41.7 18.7   644 – Palomar Mountain/NEAT MPS 49237
2002 02 04.57149 10 47 06.89 +12 13 44.7 19.2   644 – Palomar Mountain/NEAT MPS 49237
2002 02 07.32275 10 45 08.79 +12 27 32.9 18.2   704 – Lincoln Laboratory ETS, New Mexico MPS 49237
2002 02 07.33719 10 45 08.10 +12 27 37.6 18.4   704 – Lincoln Laboratory ETS, New Mexico MPS 49237
2002 02 07.35160 10 45 07.43 +12 27 41.6 18.3   704 – Lincoln Laboratory ETS, New Mexico MPS 49237
2002 02 07.36601 10 45 06.78 +12 27 45.9 18.2   704 – Lincoln Laboratory ETS, New Mexico MPS 49237
2002 02 07.38078 10 45 06.06 +12 27 50.2 18.1   704 – Lincoln Laboratory ETS, New Mexico MPS 49237
2002 02 08.56960 10 44 12.00 +12 33 58.4 19.0   608 – Haleakala-AMOS MPS 54139
2002 02 08.58004 10 44 11.47 +12 34 02.1 18.9   608 – Haleakala-AMOS MPS 54139
2002 02 08.59058 10 44 10.98 +12 34 05.3 18.8   608 – Haleakala-AMOS MPS 54139
2002 02 10.31755 10 42 49.88 +12 43 04.9 17.3   704 – Lincoln Laboratory ETS, New Mexico MPS 49237
2002 02 10.33171 10 42 49.17 +12 43 09.4 17.9   704 – Lincoln Laboratory ETS, New Mexico MPS 49237
